Regional Weather Roundup
Issued by NWS

Home | Current Version | Previous Version | Graphics & Text | Print | Product List | Glossary On
Versions: 1 2 3 4 5 6 7 8 9 10 11 12 13 14 15 16 17 18 19 20 21 22 23 24 25 26 27 28 29 30 31 32 33 34 35 36 37 38 39 40 41 42 43 44 45 46 47 48 49 50
000
ASUS43 KLOT 290710
RWRIL

ILLINOIS REGIONAL WEATHER ROUNDUP
NATIONAL WEATHER SERVICE CHICAGO/ROMEOVILLE IL
100 AM CST MON DEC 29 2014

NOTE: "FAIR" INDICATES FEW OR NO CLOUDS BELOW 12,000 FEET WITH NO
SIGNIFICANT WEATHER AND/OR OBSTRUCTIONS TO VISIBILITY.

* THESE STATIONS ARE NOT UNDER NWS QUALITY CONTROL. THEY ALSO MAY NOT
  REPORT WEATHER SUCH AS PRECIPITATION OR FOG.

ILZ001-002-007-009-015-016-024-290800-
NORTHWEST ILLINOIS

CITY           SKY/WX    TMP DP  RH WIND       PRES   REMARKS
MOLINE         MOCLDY    22  19  89 CALM      30.25F
STERLING*      MOCLDY    25  19  80 CALM      30.26S
SAVANNA*       CLOUDY    24  20  82 CALM      30.28R
$$

ILZ003-004-008-010-011-017-018-290800-
NORTH CENTRAL ILLINOIS

CITY           SKY/WX    TMP DP  RH WIND       PRES   REMARKS
ROCKFORD       CLOUDY    24  19  81 CALM      30.28R
FREEPORT*      CLOUDY    24  19  81 CALM      30.28R
ROCHELLE*      MOCLDY    25  20  83 CALM      30.27R
DE KALB*       MOCLDY    23  18  80 CALM      30.26R
PERU*          PTCLDY    25  20  82 CALM      30.26F
$$

ILZ005-006-012>014-019>023-290800-
NORTHEAST ILLINOIS

CITY           SKY/WX    TMP DP  RH WIND       PRES   REMARKS
CHICAGO-OHARE  MOCLDY    26  18  71 N5        30.24S WCI  20
CHICAGO-MIDWAY PTCLDY    27  18  69 W3        30.25S
AURORA         MOCLDY    25  18  74 N3        30.26R
LANSING*       PTCLDY    23  19  84 CALM      30.25S
JOLIET*        PTCLDY    21  18  89 CALM      30.27R
WAUKEGAN       MOCLDY    26  18  71 NW3       30.25R
DUPAGE AIRPORT MOCLDY    22  17  81 CALM      30.25R
KANKAKEE*      CLEAR     24  19  78 CALM      30.27R
WHEELING       MOCLDY    24  18  77 NW5       30.27R WCI  18
MORRIS*        PTCLDY    22  19  88 CALM      30.26R
ROMEOVILLE*    PTCLDY    22  18  86 CALM      30.26R
NORTHERLY ISL    N/A     30  20  66 W3          N/A
$$

LMZ740>746-290800-
SOUTHERN LAKE MICHIGAN

STATION/POSITION SKY/WX   TEMP    WIND        PRES    VSBY  WAVE
                          AIR SEA DIR/SP/G                  HT/PER
                          (F)     (DEG/KT/KT) (MB)    (MI)  (FT/S)
WAUKEGAN HARBOR            28     340/  5/  8   N/A
HARRISON CRIB              31     310/  7/  9   N/A
BURNHAM HARBOR             30     250/  4/  4   N/A
CALUMET HARBOR             28     270/  3/  4 1023.1R
MICHIGAN CITY              34     320/ 10/ 12   N/A
$$

ILZ025>027-034>036-040-047-049-050-058-095>099-290800-
WEST-CENTRAL ILLINOIS

CITY           SKY/WX    TMP DP  RH WIND       PRES   REMARKS
QUINCY         CLEAR     27  23  85 S3        30.23S
GALESBURG*     PTCLDY    21  20  96 CALM      30.24S
MACOMB*        PTCLDY    21  20  96 CALM      30.26S
JACKSONVILLE*  CLEAR     23  21  91 SE3       30.25S
PITTSFIELD*    CLEAR     26  24  92 CALM      30.24F
$$

ILZ028>032-037-038-041>044-048-051>054-059>061-290800-
CENTRAL ILLINOIS

CITY           SKY/WX    TMP DP  RH WIND       PRES   REMARKS
PONTIAC        CLEAR     22  19  89 CALM      30.26S
BLOOMINGTON    CLEAR     24  21  88 CALM      30.26R
DECATUR        CLEAR     23  20  88 CALM      30.25S
PEORIA         CLEAR     23  17  78 CALM      30.26S
LACON*         CLEAR     20  17  88 CALM      30.26S
LINCOLN*       CLEAR     23  21  93 CALM      30.27S
SPRINGFIELD    CLEAR     22  18  85 CALM      30.26R
TAYLORVILLE    CLEAR     25  25 100 CALM      30.25S FOG
$$

ILZ033-039-045-046-055>057-062-063-290800-
EAST-CENTRAL ILLINOIS

CITY           SKY/WX    TMP DP  RH WIND       PRES   REMARKS
CHAMPAIGN      CLEAR     21  18  88 CALM      30.25R
DANVILLE*      CLEAR     22  21  96 CALM      30.23R FOG
RANTOUL*       CLEAR     22  19  89 CALM      30.26R
MATTOON        CLEAR     22  21  96 N5        30.23S WCI  16
PARIS*         CLEAR     22  22  98 CALM      30.25S
$$

ILZ079-100>102-290800-
SOUTHWEST ILLINOIS

CITY           SKY/WX    TMP DP  RH WIND       PRES   REMARKS
ALTON          CLEAR     26  25  96 CALM      30.26R FOG
BELLEVILLE     CLEAR     22  22  99 N2        30.24S
CAHOKIA*       CLEAR     25  23  92 CALM      30.25R
SPARTA*        CLEAR     26  24  95 CALM      30.24S
$$

ILZ064>066-069>071-074>076-080>082-084>086-088>090-092>094-290800-
SOUTH-CENTRAL ILLINOIS

CITY           SKY/WX    TMP DP  RH WIND       PRES   REMARKS
CARBONDALE     CLOUDY    30  24  78 CALM      30.23F
CAIRO*         CLOUDY    35  29  80 NE9       30.23R WCI  27
EFFINGHAM*     CLEAR     23  21  91 CALM      30.25F FOG
MARION         CLOUDY    32  27  80 CALM      30.24S
MT. VERNON     CLEAR     23  18  80 CALM      30.24S
CENTRALIA*     CLEAR     25  23  93 CALM      30.24R FOG
SALEM*         CLEAR     27  25  93 CALM      30.24S FOG
METROPOLIS*    CLOUDY    33  30  89 N6        30.21S WCI  27
$$

ILZ067-068-072-073-078-083-087-091-290800-
SOUTHEAST ILLINOIS

CITY           SKY/WX    TMP DP  RH WIND       PRES   REMARKS
LAWRENCEVILLE  CLEAR     25  23  92 N5        30.24F WCI  19
FLORA*         CLEAR     25  24  97 CALM      30.24S
FAIRFIELD*     CLEAR     25  24  94 N3        30.23S
HARRISBURG*    CLEAR     28  28  96 CALM      30.24S
ROBINSON*      CLEAR     22  22  99 CALM      30.26R FOG
CARMI*         CLEAR     27  26  97 N3        30.23S
$$

ABBREVIATIONS USED IN REMARKS
   TC - TEMPERATURE IN CELSIUS
  WCI - WIND CHILL INDEX
   HX - HEAT INDEX
  VSB - VISIBILITY
$$




USA.gov is the U.S. government's official web portal to all federal, state and local government web resources and services.